Hourly Data Report for October 11, 2015

All times are specified in Local Standard Time (LST). Add 1 hour to adjust for Daylight Saving Time where and when it is observed.

PETAWAWA AWOS 2
ONTARIO

45°57'00.000" N
77°19'00.000" W
130.10 m
6106396
71625
YWA

Download Data

Hourly Data (October 2015)
Hourly Data Report for October 11, 2015
Temp Definition
°C
Dew Point Temp Definition
°C
Rel Hum Definition
%
Wind Dir Definition
10's deg

Wind Spd Definition
km/h
Visibility Definition
km
Stn Press Definition
kPa
Hmdx Definition


Wind Chill Definition


Weather Definition


TIME
00:00 9.1 6.0 81 16 9 14.5 99.38     LegendNANA
01:00 10.1 6.9 80 14 6 14.5 99.35     LegendNANA
02:00 9.9 7.3 84   0 14.5 99.32     LegendNANA
03:00 9.3 6.1 80 16 6 14.5 99.21     LegendNANA
04:00 9.8 5.9 77 18 7 14.5 99.15     LegendNANA
05:00 10.3 6.2 76 19 6 14.5 99.08     LegendNANA
06:00 10.4 6.5 77 16 4 14.5 99.05     LegendNANA
07:00 9.0 6.9 87 16 4 14.5 99.07     LegendNANA
08:00 11.0 7.6 80   0 14.5 99.09     LegendNANA
09:00 13.2 8.8 75 23 9 14.5 99.08     LegendNANA
10:00 14.9 8.9 67 27 20 14.5 99.04     LegendNANA
11:00 16.4 9.3 63 26 15 14.5 98.96     LegendNANA
12:00 18.7 10.3 58 23 7 14.5 98.92     LegendNANA
13:00 19.8 10.3 54 23 9 14.5 98.84     LegendNANA
14:00 19.9 10.7 55 21 13 14.5 98.78     LegendNANA
15:00 20.5 10.9 54 23 11 14.5 98.74     LegendNANA
16:00 20.2 10.8 55 24 11 14.5 98.72     LegendNANA
17:00 18.1 11.4 65 21 6 14.5 98.72     LegendNANA
18:00 15.7 10.6 72 23 6 14.5 98.73     LegendNANA
19:00 14.2 10.6 79 21 4 14.5 98.74     LegendNANA
20:00 11.8 10.6 92   0 14.5 98.75     LegendNANA
21:00 10.9 10.0 94 17 4 14.5 98.77     LegendNANA
22:00 9.9 8.8 93 16 4 14.5 98.80     LegendNANA
23:00 13.3 11.1 86 13 6 14.5 98.78     LegendNANA

Notes on Data Quality.

Legend

  • E = Estimated
  • M = Missing
  • NA = Not Available
  • ‡ = Partner data that is not subject to review by the National Climate Archives
Date modified: